Regional Weather Roundup
Issued by NWS

Home | Current Version | Previous Version | Graphics & Text | Print | Product List | Glossary On
Versions: 1 2 3 4 5 6 7 8 9 10 11 12 13 14 15 16 17 18 19 20 21 22 23 24 25 26 27 28 29 30 31 32 33 34 35 36 37 38 39 40 41 42 43 44 45 46 47 48 49 50
000
ASUS43 KDMX 010403
RWRIA

WEATHER ROUNDUP FOR IOWA
NATIONAL WEATHER SERVICE DES MOINES IA
1100 PM CDT SAT APR 30 2016

NOTE: "FAIR" INDICATES FEW OR NO CLOUDS BELOW 12,000 FEET WITH NO
SIGNIFICANT WEATHER AND/OR OBSTRUCTIONS TO VISIBILITY.

* - THESE STATIONS ARE NOT NWS STATIONS...THUS NOT UNDER NWS
QUALITY CONTROL.  THEY ALSO DO NOT REPORT WEATHER SUCH
AS PRECIPITATION OR FOG.

IAZ001>003-012>014-020>022-031>034-043>046-010500-
   NORTHWEST IOWA

CITY           SKY/WX    TMP DP  RH WIND       PRES   REMARKS
CARROLL *      CLOUDY    45  45 100 E20G28    29.94R FOG
CHEROKEE *     LGT RAIN  43  43 100 NE14G22   29.99R
DENISON *      CLOUDY    45  45 100 NE16G26   29.90R FOG
LE MARS *      CLOUDY    45  41  87 NE18G26   30.00S
ORANGE CITY *  CLOUDY    43  41  93 E15G26    30.01R
SHELDON *      CLOUDY    43  41  93 NE23G30   30.01R
SIOUX CITY     CLOUDY    46  41  82 NE23G32   29.96R
SPENCER        LGT RAIN  43  40  89 NE25G31   30.03R
STORM LAKE *   CLOUDY    43  41  93 NE28G35   29.97R FOG
$$

IAZ055>058-069>071-079>083-090>094-010500-
   SOUTHWEST IOWA

CITY           SKY/WX    TMP DP  RH WIND       PRES   REMARKS
ATLANTIC *     CLOUDY    48  46  93 E12G18    29.88R
AUDUBON *        N/A     45  43  93 NE17      29.91R FOG
CLARINDA *       N/A    N/A N/A N/A MISG        N/A
COUNCIL BLFS * CLOUDY    48  48 100 E17       29.87R
CRESTON *      CLOUDY    46  46 100 E17G24    29.88R FOG
HARLAN  *      CLOUDY    46  45  93 E16       29.92R
LAMONI         CLOUDY    49  49 100 E7        29.86R
RED OAK *      CLOUDY    50  48  93 E12       29.87R
SHENANDOAH *   CLOUDY    52  52 100 NE9       29.87R
$$

IAZ047>049-059>061-072>074-084-010500-
   CENTRAL IOWA

CITY           SKY/WX    TMP DP  RH WIND       PRES   REMARKS
AMES           CLOUDY    44  43  96 E12       29.95R FOG
ANKENY *       CLOUDY    45  45 100 E12       29.92R FOG
BOONE *        CLOUDY    43  43 100 E20G28    29.93R FOG
CHARITON *     CLOUDY    46  46 100 E15       29.87S FOG
DES MOINES     LGT RAIN  47  43  86 E12       29.91R FOG
GRINNELL*      CLOUDY    45  43  93 NE15      29.91R FOG
KNOXVILLE *    CLOUDY    46  45  93 E9G15     29.89R FOG
MARSHALLTOWN   CLOUDY    44  42  93 E18G26    29.93R
NEWTON *       CLOUDY    45  45 100 NE9       29.91R FOG
PELLA *        LGT RAIN  46  45  97 E5        29.92R
$$

IAZ004>006-015-016-023>025-035-036-010500-
   NORTH CENTRAL IOWA

CITY           SKY/WX    TMP DP  RH WIND       PRES   REMARKS
ALGONA *       CLOUDY    43  41  93 NE22G31   30.00S
CLARION *      CLOUDY    43  43 100 NE22G29   29.98R FOG
ESTHERVILLE    CLOUDY    42  41  96 NE17      30.04R
FORT DODGE *   CLOUDY    43  39  87 NE20G25   29.97R
MASON CITY     LGT RAIN  42  40  92 NE18      30.02R FOG
FOREST CITY *  CLOUDY    41  41 100 NE15      30.02R FOG
WEBSTER CITY * CLOUDY    45  43  93 E20       29.95R FOG
IOWA FALLS *   LGT RAIN  45  43  93 NE15G24   29.97R
$$

IAZ007>011-017>019-026>030-037>042-050>054-066-010500-
   NORTHEAST IOWA

CITY           SKY/WX    TMP DP  RH WIND       PRES   REMARKS
CEDAR RAPIDS   CLOUDY    44  44 100 NE15G26   29.91F
CHARLES CITY * CLOUDY    45  43  93 NE18      30.00R
CLINTON *      CLOUDY    44  43  96 NE17      29.91S
DECORAH *      CLOUDY    43  43 100 NE15G23   30.00S FOG
DUBUQUE        CLOUDY    43  41  93 NE16      29.95S FOG
MONTICELLO *   CLOUDY    45  43  93 NE7G20    29.94R FOG
OELWEIN *      CLOUDY    43  43 100 E20G26    29.96R
WATERLOO       CLOUDY    44  41  89 NE17      29.97R
$$

IAZ064-065-067-068-078-010500-
   EAST CENTRAL IOWA

CITY           SKY/WX    TMP DP  RH WIND       PRES   REMARKS
DAVENPORT      CLOUDY    45  43  93 E14G23    29.91S
IOWA CITY      CLOUDY    45  44  97 NE16G24   29.92R FOG
MT. PLEASANT * CLOUDY    48  48 100 NE12      29.89R FOG
MUSCATINE *    CLOUDY    46  45  93 NE8G15    29.90S FOG
QUAD CITIES    CLOUDY    47  43  86 E16       29.89R
$$

IAZ062-063-075>077-085>089-095>099-010500-
   SOUTHEAST IOWA

CITY           SKY/WX    TMP DP  RH WIND       PRES   REMARKS
BURLINGTON     CLOUDY    48  48 100 NE9       29.87R FOG
FAIRFIELD *    CLOUDY    46  46 100 E16       29.88R FOG
FORT MADISON * CLOUDY    48  48 100 NE8       29.87S FOG
KEOKUK *       CLOUDY    50  50 100 VRB7G13   29.85S FOG
OSKALOOSA *    CLOUDY    45  44  97 E16       29.90R FOG
OTTUMWA        CLOUDY    46  45  96 E14       29.89R FOG
WASHINGTON *   CLOUDY    46  46 100 NE13      29.91R FOG
$$

ABBREVIATIONS USED IN REMARKS
   TC - TEMPERATURES IN CELSIUS
  WCI - WIND CHILL INDEX
   HX - HEAT INDEX
  VSB - VISIBILITY
$$





USA.gov is the U.S. government's official web portal to all federal, state and local government web resources and services.